Location: Hungerford
(51.4167°N, 1.5167°W)
Time: 21:43:18
(UTC+00:00)

USA 229 DEB - Pass Details

Date: 18 September 2020
Orbit: 971 x 1241 km, 63.4° (Epoch: 14 October)

Event Time Altitude Azimuth Distance (km) Brightness Sun altitude
Rises 18:40:09 0° 240° (WSW) 3,710 7.5 -5.1°
Reaches altitude 10° 18:42:44 10° 244° (WSW) 2,789 6.9 -5.5°
Maximum altitude 18:49:13 59° 324° (NW) 1,205 4.3 -6.5°
Drops below altitude 10° 18:56:09 10° 44° (NE) 2,979 5.7 -7.6°
Sets 18:58:59 0° 48° (NE) 3,981 6.3 -8.0°
